Lid_Strength_Index
17 18 20 17 19 19 19 19 20 19 16 17 18 17 15 15 15 15 15 15 15 14 13 12 11 12 12 13 13 13 13 13 13 14 14 14 15 15 14 14 13 13 12 12
18 20 17 17 17 18 20 18 19 17 16 17 18 17 16 15 15 14 14 14 14 13 13 13 12 12 12 14 14 14 14 15 14 14 14 14 15 15 15 14 14 13 13 12
20 18 16 17 18 18 20 20 20 20 19 17 18 19 17 16 15 14 13 12 14 13 13 13 13 13 15 15 15 15 15 15 15 14 14 15 15 15 16 15 15 14 14 13
19 16 17 18 19 18 21 18 19 19 19 22 20 24 19 18 17 16 16 16 16 14 14 13 14 15 15 16 15 15 15 14 14 14 16 17 17 17 16 16 15 14 14 14
20 19 19 19 18 17 19 17 18 19 21 22 22 24 20 19 17 16 17 17 17 15 15 15 15 14 16 16 16 16 16 15 15 15 16 17 17 16 16 16 16 15 15 14
18 16 17 18 17 17 16 17 18 20 21 24 21 22 20 18 17 17 18 19 18 16 15 15 15 15 16 16 16 16 16 16 15 16 16 17 17 17 17 16 16 16 16 15
18 18 17 16 18 16 17 19 21 23 25 22 22 23 19 16 17 17 17 18 17 15 15 15 16 17 17 16 16 16 16 17 16 16 16 16 16 16 16 16 16 16 16 16
21 22 18 16 18 19 19 18 21 25 24 23 21 21 17 18 17 16 16 17 16 16 15 16 16 16 16 16 16 16 17 17 17 16 16 16 16 15 15 15 16 16 16 16
21 20 17 16 16 17 19 20 18 21 28 24 21 19 16 17 17 16 17 16 17 16 16 16 16 16 16 16 16 16 17 17 17 16 17 17 16 15 15 15 15 15 15 15
17 19 17 16 16 16 18 17 20 21 25 27 22 21 19 18 18 17 17 17 17 16 16 16 16 16 16 16 16 16 17 17 18 16 16 17 16 16 15 15 15 15 15 15
15 16 18 16 18 18 18 19 19 19 20 22 24 20 18 19 17 17 16 16 16 16 16 16 15 15 16 16 16 16 16 17 17 16 17 17 16 16 15 15 15 15 15 16
13 16 19 19 17 16 18 18 17 20 20 21 20 21 16 17 16 16 16 15 15 15 15 15 15 15 16 16 16 17 17 17 17 16 17 17 16 17 16 15 15 15 15 15
12 16 22 19 18 17 17 16 16 17 18 20 21 19 15 16 15 15 15 15 15 15 15 15 15 15 16 16 16 17 17 17 17 17 17 16 17 18 17 15 15 15 15 15
10 15 16 18 17 17 18 17 16 16 20 19 19 17 14 13 13 13 14 15 15 14 14 15 15 15 15 16 16 17 17 17 17 17 17 17 18 18 17 16 16 15 15 15
11 14 14 14 15 16 16 16 16 17 16 18 17 16 13 13 13 12 13 14 15 15 14 15 15 15 15 16 16 16 16 17 17 17 18 18 17 18 18 16 16 15 15 15
12 14 15 16 16 15 16 16 17 16 15 16 15 16 11 11 12 13 13 13 14 14 14 14 14 14 15 15 16 16 17 17 17 17 18 17 17 17 17 17 16 15 15 15
12 14 16 21 18 17 20 16 14 14 15 14 16 13 12 12 12 12 12 12 13 14 13 13 14 14 14 14 15 16 17 17 17 18 18 16 17 17 18 18 17 16 16 16
13 13 15 21 22 22 16 15 14 13 12 12 12 11 11 11 12 12 12 13 13 13 13 13 12 13 13 13 14 16 16 17 17 18 17 18 17 17 18 18 18 18 18 17
10 13 19 20 25 18 14 15 15 14 14 11 11 10 10 12 14 13 12 12 12 12 12 12 11 11 12 13 15 16 17 17 18 18 18 17 17 17 18 18 18 18 18 17
10 11 14 19 23 23 17 14 13 12 16 13 11 12 12 14 15 14 12 12 12 12 12 12 11 11 12 13 14 16 17 17 18 18 17 18 17 17 19 18 18 17 18 17
13 13 15 15 17 19 14 13 12 18 15 14 13 13 13 14 12 11 12 12 12 12 12 12 12 12 12 13 15 16 16 17 16 17 18 18 17 18 18 18 18 18 17 17
15 15 16 15 19 19 13 14 14 13 13 12 11 12 11 12 12 11 12 12 12 12 12 12 12 13 13 14 15 16 17 16 16 17 18 18 18 18 18 18 18 18 18 18
18 15 17 14 14 12 13 13 12 11 11 12 11 11 11 11 12 12 11 12 11 13 13 13 13 14 14 15 15 16 15 16 17 17 18 18 18 18 18 19 19 19 18 19
15 14 16 14 13 12 12 12 12 12 12 11 11 11 12 12 12 13 12 11 13 13 13 13 14 14 15 15 15 15 16 16 17 18 18 19 19 19 19 18 18 18 18 19
15 13 15 15 13 12 12 13 13 12 12 12 11 11 11 11 12 12 13 12 12 13 12 13 14 15 15 16 16 16 16 17 17 17 18 19 18 19 19 19 18 18 18 17
15 15 14 14 13 12 12 12 12 12 12 12 12 12 11 12 12 13 13 12 13 13 13 14 14 15 16 16 16 16 16 17 17 17 18 18 18 19 19 19 19 16 16 15